When you browse on this site, cookies collect data to enhance your experience and personalize the content and advertising you see.
Visit our Privacy Policy to learn more. By continuing to use the site, you agree to this use of cookies and data.
  • în România
  • Lista ţărilor
  • Pe 7 zile
  • Temperatura apei
  • Meteo pe hartă
  • Widget-uri
  • user-avatar
    Intrare

    Meteo pe oră la La Massana

    Astăzi, 3 Iunie, Miercuri

    Timp Temperatura Precipitaţii Vânt Presiune Umiditate
    00:00 +8°C° 0 mm 1 m/s 608 mmHg 92%
    01:00 +8°C° 0 mm 1 m/s 608 mmHg 92%
    02:00 +8°C° 0 mm 1 m/s 608 mmHg 92%
    03:00 +8°C° 0 mm 1 m/s 607 mmHg 92%
    04:00 +9°C° 0 mm 1 m/s 607 mmHg 90%
    05:00 +10°C° 0 mm 1 m/s 608 mmHg 89%
    06:00 +11°C° 0 mm 1 m/s 608 mmHg 85%
    07:00 +12°C° 0.6 mm 1 m/s 608 mmHg 81%
    08:00 +13°C° 0.6 mm 1 m/s 609 mmHg 78%
    09:00 +15°C° 0.6 mm 1 m/s 609 mmHg 74%
    10:00 +14°C° 1.1 mm 1 m/s 609 mmHg 75%
    11:00 +14°C° 1.1 mm 1 m/s 608 mmHg 76%
    12:00 +15°C° 0 mm 1 m/s 608 mmHg 77%
    13:00 +14°C° 1 mm 1 m/s 607 mmHg 78%
    14:00 +14°C° 1 mm 1 m/s 607 mmHg 78%
    15:00 +14°C° 1 mm 2 m/s 606 mmHg 79%
    16:00 +13°C° 1 mm 1 m/s 606 mmHg 83%
    17:00 +12°C° 1 mm 1 m/s 605 mmHg 87%
    18:00 +11°C° 1 mm 1 m/s 605 mmHg 91%
    19:00 +11°C° 1.4 mm 1 m/s 604 mmHg 93%
    20:00 +10°C° 1.4 mm 1 m/s 604 mmHg 96%
    21:00 +9°C° 1.4 mm 1 m/s 604 mmHg 98%
    22:00 +9°C° 0.8 mm 1 m/s 604 mmHg 98%
    23:00 +9°C° 0.8 mm 1 m/s 604 mmHg 98%

    Mâine, 4 Iunie, Joi

    Timp Temperatura Precipitaţii Vânt Presiune Umiditate
    00:00 +8°C° 0.8 mm 1 m/s 603 mmHg 98%
    01:00 +8°C° 1 mm 1 m/s 603 mmHg 98%
    02:00 +8°C° 1 mm 1 m/s 602 mmHg 98%
    03:00 +7°C° 1 mm 1 m/s 602 mmHg 98%
    04:00 +7°C° 1.3 mm 1 m/s 602 mmHg 98%
    05:00 +7°C° 1.3 mm 1 m/s 602 mmHg 98%
    06:00 +7°C° 1.3 mm 1 m/s 602 mmHg 97%
    07:00 +7°C° 0.5 mm 1 m/s 602 mmHg 95%
    08:00 +7°C° 0.5 mm 1 m/s 602 mmHg 93%
    09:00 +7°C° 0.5 mm 1 m/s 602 mmHg 91%
    10:00 +7°C° 0.2 mm 1 m/s 602 mmHg 86%
    11:00 +8°C° 0.2 mm 1 m/s 602 mmHg 82%
    12:00 +9°C° 0.2 mm 1 m/s 602 mmHg 78%
    13:00 +8°C° 1.1 mm 1 m/s 602 mmHg 81%
    14:00 +7°C° 1.1 mm 2 m/s 601 mmHg 85%
    15:00 +6°C° 1.1 mm 2 m/s 601 mmHg 89%
    16:00 +6°C° 0.7 mm 2 m/s 601 mmHg 89%
    17:00 +5°C° 0.7 mm 2 m/s 601 mmHg 89%
    18:00 +5°C° 0.7 mm 2 m/s 601 mmHg 89%
    19:00 +5°C° 0.2 mm 2 m/s 601 mmHg 91%
    20:00 +4°C° 0.2 mm 2 m/s 602 mmHg 93%
    21:00 +4°C° 0.2 mm 2 m/s 602 mmHg 94%
    22:00 +3°C° 0.1 mm 2 m/s 602 mmHg 94%
    23:00 +3°C° 0.1 mm 2 m/s 602 mmHg 94%

    Poimâine, 5 Iunie, Vineri

    Timp Temperatura Precipitaţii Vânt Presiune Umiditate
    00:00 +3°C° 0.1 mm 2 m/s 603 mmHg 94%
    01:00 +3°C° 0.2 mm 2 m/s 603 mmHg 94%
    02:00 +3°C° 0.2 mm 2 m/s 603 mmHg 94%
    03:00 +3°C° 0.2 mm 2 m/s 603 mmHg 94%
    04:00 +3°C° 0 mm 2 m/s 603 mmHg 92%
    05:00 +3°C° 0 mm 2 m/s 604 mmHg 91%
    06:00 +3°C° 0 mm 2 m/s 604 mmHg 90%
    07:00 +4°C° 0 mm 2 m/s 605 mmHg 83%
    08:00 +6°C° 0 mm 2 m/s 605 mmHg 76%
    09:00 +7°C° 0 mm 2 m/s 606 mmHg 69%
    10:00 +9°C° 0 mm 2 m/s 607 mmHg 63%
    11:00 +12°C° 0 mm 2 m/s 608 mmHg 58%
    12:00 +14°C° 0 mm 2 m/s 609 mmHg 52%
    13:00 +14°C° 0 mm 2 m/s 609 mmHg 53%
    14:00 +14°C° 0 mm 2 m/s 609 mmHg 55%
    15:00 +14°C° 0 mm 2 m/s 609 mmHg 56%
    16:00 +13°C° 0 mm 2 m/s 608 mmHg 64%
    17:00 +12°C° 0 mm 2 m/s 608 mmHg 72%
    18:00 +11°C° 0 mm 1 m/s 608 mmHg 80%
    19:00 +10°C° 0 mm 1 m/s 608 mmHg 84%
    20:00 +9°C° 0 mm 1 m/s 608 mmHg 89%
    21:00 +8°C° 0 mm 1 m/s 608 mmHg 93%
    22:00 +6°C° 0 mm 0 m/s 607 mmHg 94%
    23:00 +6°C° 0 mm 0 m/s 607 mmHg 94%

    6 Iunie, Sâmbătă

    Timp Temperatura Precipitaţii Vânt Presiune Umiditate
    00:00 +6°C° 0 mm 0 m/s 607 mmHg 95%
    01:00 +5°C° 0 mm 0 m/s 607 mmHg 95%
    02:00 +5°C° 0 mm 0 m/s 607 mmHg 95%
    03:00 +5°C° 0 mm 0 m/s 607 mmHg 95%
    04:00 +6°C° 0 mm 0 m/s 607 mmHg 92%
    05:00 +7°C° 0 mm 0 m/s 607 mmHg 89%
    06:00 +8°C° 0 mm 0 m/s 608 mmHg 87%
    07:00 +11°C° 0 mm 1 m/s 609 mmHg 79%
    08:00 +12°C° 0 mm 1 m/s 609 mmHg 72%
    09:00 +14°C° 0 mm 2 m/s 610 mmHg 64%
    10:00 +14°C° 0.1 mm 2 m/s 610 mmHg 65%
    11:00 +14°C° 0.1 mm 2 m/s 610 mmHg 65%
    12:00 +15°C° 0.1 mm 2 m/s 610 mmHg 66%
    13:00 +14°C° 0.5 mm 2 m/s 609 mmHg 72%
    14:00 +13°C° 0.5 mm 2 m/s 608 mmHg 79%
    15:00 +12°C° 0.5 mm 2 m/s 608 mmHg 85%
    16:00 +12°C° 0.7 mm 1 m/s 608 mmHg 87%
    17:00 +12°C° 0.7 mm 1 m/s 607 mmHg 88%
    18:00 +11°C° 0.7 mm 1 m/s 607 mmHg 89%
    19:00 +10°C° 2.4 mm 1 m/s 607 mmHg 92%
    20:00 +10°C° 2.4 mm 1 m/s 607 mmHg 95%
    21:00 +9°C° 2.4 mm 1 m/s 607 mmHg 98%
    22:00 +8°C° 2.4 mm 1 m/s 607 mmHg 97%
    23:00 +8°C° 2.4 mm 1 m/s 606 mmHg 96%

    7 Iunie, Duminică

    Timp Temperatura Precipitaţii Vânt Presiune Umiditate
    00:00 +6°C° 2.4 mm 0 m/s 606 mmHg 96%
    01:00 +6°C° 0 mm 0 m/s 606 mmHg 95%
    02:00 +6°C° 0 mm 0 m/s 605 mmHg 94%
    03:00 +6°C° 0 mm 0 m/s 605 mmHg 93%
    04:00 +6°C° 0.3 mm 0 m/s 606 mmHg 93%
    05:00 +7°C° 0.3 mm 0 m/s 606 mmHg 93%
    06:00 +7°C° 0.3 mm 0 m/s 607 mmHg 92%
    07:00 +9°C° 0.8 mm 1 m/s 607 mmHg 92%
    08:00 +9°C° 0.8 mm 1 m/s 607 mmHg 92%
    09:00 +8°C° 0.8 mm 2 m/s 608 mmHg 92%
    10:00 +8°C° 1.1 mm 2 m/s 608 mmHg 91%
    11:00 +9°C° 1.1 mm 1 m/s 608 mmHg 91%
    12:00 +9°C° 1.1 mm 1 m/s 608 mmHg 91%
    13:00 +9°C° 0.9 mm 1 m/s 608 mmHg 91%
    14:00 +8°C° 0.9 mm 1 m/s 608 mmHg 92%
    15:00 +7°C° 0.9 mm 2 m/s 607 mmHg 93%
    16:00 +7°C° 0.6 mm 2 m/s 607 mmHg 93%
    17:00 +6°C° 0.6 mm 2 m/s 607 mmHg 93%
    18:00 +6°C° 0.6 mm 2 m/s 607 mmHg 94%
    19:00 +5°C° 0.2 mm 2 m/s 607 mmHg 94%
    20:00 +4°C° 0.2 mm 2 m/s 607 mmHg 94%
    21:00 +5°C° 0.2 mm 1 m/s 608 mmHg 94%
    22:00 +5°C° 0.1 mm 1 m/s 608 mmHg 94%
    23:00 +5°C° 0.1 mm 1 m/s 608 mmHg 93%

    8 Iunie, Luni

    Timp Temperatura Precipitaţii Vânt Presiune Umiditate
    00:00 +4°C° 0.1 mm 1 m/s 607 mmHg 93%
    01:00 +4°C° 0.1 mm 1 m/s 607 mmHg 93%
    02:00 +4°C° 0.1 mm 1 m/s 607 mmHg 94%
    03:00 +4°C° 0.1 mm 1 m/s 607 mmHg 94%
    04:00 +4°C° 0.1 mm 1 m/s 607 mmHg 94%
    05:00 +4°C° 0.1 mm 1 m/s 608 mmHg 94%
    06:00 +4°C° 0.1 mm 1 m/s 608 mmHg 94%
    07:00 +4°C° 0 mm 2 m/s 608 mmHg 89%
    08:00 +4°C° 0 mm 2 m/s 609 mmHg 84%
    09:00 +5°C° 0 mm 2 m/s 609 mmHg 80%
    10:00 +7°C° 0 mm 2 m/s 610 mmHg 69%
    11:00 +8°C° 0 mm 2 m/s 610 mmHg 58%
    12:00 +10°C° 0 mm 2 m/s 611 mmHg 47%
    13:00 +10°C° 0.1 mm 2 m/s 611 mmHg 48%
    14:00 +10°C° 0.1 mm 2 m/s 611 mmHg 49%
    15:00 +12°C° 0.1 mm 2 m/s 611 mmHg 49%
    16:00 +10°C° 0 mm 2 m/s 611 mmHg 57%
    17:00 +9°C° 0 mm 2 m/s 610 mmHg 64%
    18:00 +8°C° 0 mm 2 m/s 610 mmHg 71%
    19:00 +6°C° 0 mm 2 m/s 610 mmHg 78%
    20:00 +5°C° 0 mm 1 m/s 609 mmHg 84%
    21:00 +4°C° 0 mm 1 m/s 609 mmHg 91%
    22:00 +3°C° 0 mm 1 m/s 609 mmHg 88%
    23:00 +3°C° 0 mm 1 m/s 609 mmHg 86%
    Arată mai mult